Regional Weather Roundup
Issued by NWS Huntsville, AL

Home | Current Version | Previous Version | Text Only | Print | Product List | Glossary On
Versions: 1 2 3 4 5 6 7 8 9 10 11 12 13 14 15 16 17 18 19 20 21 22 23 24 25 26 27 28 29 30 31 32 33 34 35 36 37 38 39 40 41 42 43 44 45 46 47 48 49 50
000
ASUS44 KHUN 291310
RWRHUN

WEATHER ROUNDUP FOR THE TENNESSEE VALLEY
NATIONAL WEATHER SERVICE HUNTSVILLE AL
700 AM CST THU JAN 29 2015

ALZ001>004-291400-
NORTHWEST ALABAMA

CITY           SKY/WX    TMP DP  RH WIND       PRES   REMARKS
SHOALS AIRPORT CLOUDY    50  33  52 S14       30.14S
$$

ALZ005>007-016-291400-
NORTH CENTRAL ALABAMA

CITY           SKY/WX    TMP DP  RH WIND       PRES   REMARKS
DECATUR AP     CLOUDY    45  33  63 S10       30.19R
HUNTSVILLE AP  CLOUDY    48  32  53 S8        30.19R
HUN NWS/UAH      N/A     48  29  47 S9          N/A
MERIDIANVILLE  CLOUDY    46  25  42 S10G17    30.18R
REDSTONE ARSN  CLOUDY    47  32  55 S13       30.18R
VINEMONT AP    FAIR      42  32  65 S13       30.21S
$$

ALZ008>010-291400-
NORTHEAST ALABAMA

CITY           SKY/WX    TMP DP  RH WIND       PRES   REMARKS
ALBERTVILLE    MOCLDY    43  34  70 S8        30.22R
FORT PAYNE     MOCLDY    41  27  56 S7        30.24R
SCOTTSBORO AP  MOCLDY    32  28  86 CALM      30.24R
VALLEY HEAD      N/A     43 N/A N/A MISG        N/A
$$

TNZ076-096-097-291400-
SOUTHEASTERN MIDDLE TENNESSEE

CITY           SKY/WX    TMP DP  RH WIND       PRES   REMARKS
TULLAHOMA      CLOUDY    45  27  49 S6        30.14R
WINCHESTER     CLOUDY    46  28  49 S12       30.17R
$$

...SURROUNDING SITES...

CITY           SKY/WX    TMP DP  RH WIND       PRES   REMARKS
ATLANTA        MOCLDY    36  27  69 S3        30.29R
ANNISTON       MOCLDY    32  28  85 CALM      30.28S
BIRMINGHAM     MOCLDY    45  31  58 S9        30.26S
CHATTANOOGA    CLOUDY    33  25  72 S3        30.24R
CORINTH        FAIR      50  32  50 S12       30.08R
DALTON         PTCLDY    36  30  80 CALM      30.28R
GADSDEN        MOCLDY    30  25  80 CALM      30.26S
GOLDEN TRNGL   MOCLDY    45  34  65 S13       30.17R
HALEYVILLE       N/A     41  31  68 CALM      30.22R
JACKSON TN     PTCLDY    51  37  58 S14       30.02R
LEWISBURG      CLOUDY    48  31  52 S16       30.07F
MEMPHIS        CLOUDY    55  42  61 SW13G21   30.04R
MURFREESBORO   CLOUDY    47  32  56 S15       30.07F
NASHVILLE      CLOUDY    50  32  50 S21G35    30.03F
OXFORD MS      FAIR      50  39  66 S3        30.11R
ROME           PTCLDY    29  26  89 W3        30.26S
SAVANNAH       CLOUDY    52  34  50 S13       30.08R
TUPELO         CLOUDY    47  34  60 S10       30.12F
TUSCALOOSA     MOCLDY    43  36  76 S7        30.25R
$$

...GULF COAST WEATHER...

CITY           SKY/WX    TMP DP  RH WIND       PRES   REMARKS
GULFPORT       CLEAR     41  39  93 CALM      30.24F
PASCAGOULA     CLEAR     37  36  96 CALM      30.26F
MOBILE         PTCLDY    42  41  96 SE7       30.27S
GULF SHORES    SUNNY     37  37  99 CALM      30.28R FOG
PENSACOLA      PTCLDY    44  43  96 N3        30.29R
DESTIN         CLEAR     46  39  76 E6        30.31R
PANAMA CITY    CLEAR     42  39  89 E2        30.34R
APPALACHICOLA  CLEAR     44  39  82 E6        30.33R
$$




USA.gov is the U.S. government's official web portal to all federal, state and local government web resources and services.